Location: Six Mile Lake
(44.9000°N, 79.7170°W)
Time: 20:47:01
(UTC-04:00)

Max Valier Satellite - Pass Details

Date: 05 July 2022
Orbit: 474 x 491 km, 97.2° (Epoch: 17 August)

Event Time Altitude Azimuth Distance (km) Brightness Sun altitude
Rises 21:35:49 0° 189° (S) 2,552 ? -4.8°
Reaches altitude 10° 21:38:02 10° 201° (SSW) 1,679 ? -5.1°
Maximum altitude 21:41:16 30° 264° (W) 905 ? -5.6°
Drops below altitude 10° 21:44:32 10° 327° (NNW) 1,699 ? -6.0°
Sets 21:46:48 0° 338° (NNW) 2,589 ? -6.3°
